sat.trackr.live / text

‹ back to catalog

STARLINK-5280

NORAD 54166 · 2022-141K

PAYLOAD ACTIVE UNKNOWN

§ Identity

Operator
Country
US
Launch date
2022-10-28
Launch site
AFWTR
Launch vehicle
Mass (kg)
RCS (m²)

Purposes: comms

External: N2YO · Heavens-Above · Gunter

§ Orbital elements

Epoch: 2026-09-20T10:55:16.462560Z

Period
93.85 min
Inclination
53.1602°
Eccentricity
0.0001130
Mean motion
15.34388397 rev/d
Perigee alt
462.0 km
Apogee alt
463.5 km
Semi-major
6,840.9 km
B*
1.9966e-5
RAAN
194.1723°
Arg perigee
96.9249°
Mean anomaly
263.1883°
Rev number
21,547

§ Raw data

STARLINK-52801 54166U 22141K   26263.45505165  .00000298  00000+0  19966-4 0  99952 54166  53.1602 194.1723 0001130  96.9249 263.1883 15.34388397215473

JSON: /api/v1/satellites/54166 · /tle

For live sub-satellite position, see the globe view (requires WebGL).

§ Visibility from observer

Set your observer location to see the next 7 days of passes ≥ 10°. The values pass through the URL so the page stays shareable.

No JS? Fill the form by hand. The geolocation button needs JavaScript.